Miscellaneous Local Product
Issued by NWS Hastings, NE

Home | Current Version | Previous Version | Graphics & Text | Print | Product List | Glossary On
Versions: 1 2 3 4 5 6 7 8 9 10 11 12 13 14 15 16 17 18 19 20 21 22 23 24 25 26 27 28 29 30 31 32 33 34 35 36 37 38 39 40 41 42 43 44 45 46 47 48 49 50
405
AXUS43 KGID 272102
MISGRI

GID CWA HOURLY WEATHER ROUNDUP
NATIONAL WEATHER SERVICE HASTINGS NE
400 PM CDT WED JUL 27 2016

NOTE: "FAIR" INDICATES FEW OR NO CLOUDS BELOW 12,000 FEET WITH NO
SIGNIFICANT WEATHER AND/OR OBSTRUCTIONS TO VISIBILITY.

...SOUTH CENTRAL NEBRASKA...

CITY           SKY/WX    TMP DP  RH WIND       PRES   REMARKS
GRAND ISLAND   SUNNY     87  63  44 NE8       30.00F
HASTINGS       SUNNY     85  66  53 N3        30.02F
KEARNEY        MOSUNNY   88  25  10 E8        30.02F
ORD            SUNNY     83  63  50 E5        30.00F
YORK           SUNNY     84  66  54 N9        30.00F
AURORA         SUNNY     85  63  47 CALM      30.00F
LEXINGTON      CLOUDY    83  69  61 SE8       30.03S
HOLDREGE       CLOUDY    81  66  58 SE10      30.02F
HEBRON         MOSUNNY   87  62  42 N5        30.00F

...NEBRASKA PANHANDLE...

CITY           SKY/WX    TMP DP  RH WIND       PRES   REMARKS
CHADRON        SUNNY     85  56  37 NE17      30.10S
ALLIANCE       SUNNY     87  58  37 NE13G24   30.10S
SCOTTSBLUFF    SUNNY     87  49  26 E7        30.10F
SIDNEY         SUNNY     87  58  37 SE8       30.14F

...WESTERN AND NORTH CENTRAL NEBRASKA...

CITY           SKY/WX    TMP DP  RH WIND       PRES   REMARKS
VALENTINE      PTSUNNY   67  56  67 MISG      30.08R
AINSWORTH      MOSUNNY   81  63  54 E6        30.05R
ONEILL         MOSUNNY   82  60  45 CALM      30.03S
BROKEN BOW     SUNNY     83  65  54 E3        30.04R
IMPERIAL       SUNNY     86  59  39 VRB3      30.07S
NORTH PLATTE   SUNNY     87  61  41 N9        30.05F
MCCOOK         SUNNY     86  65  49 E10       30.04F

...EASTERN NEBRASKA...

CITY           SKY/WX    TMP DP  RH WIND       PRES   REMARKS
NORFOLK        MOSUNNY   85  64  49 VRB3      29.99F
SO SIOUX CITY  CLOUDY    89  68  49 W3        29.96F HX  93
TEKAMAH        SUNNY     86  68  54 E8        29.96F
COLUMBUS       MOSUNNY   84  64  51 NE7       29.99F
ALBION         SUNNY     82  64  54 E3        30.01F
OMAHA EPPLEY   MOSUNNY   84  69  60 NE5       29.96F
OFFUTT AFB     MOSUNNY   85  70  60 E8        29.96F HX  90
MILLARD        PTSUNNY   84  71  64 CALM      29.96S
LINCOLN        MOSUNNY   88  67  49 N8        29.98F HX  91
NEBRASKA CITY  PTSUNNY   85  67  53 NW8       29.96F
BEATRICE       CLOUDY    88  65  46 W7        29.97F HX  90
FALLS CITY     PTSUNNY   87  72  60 W7        29.95F HX  93

...NORTHERN KANSAS...

CITY           SKY/WX    TMP DP  RH WIND       PRES   REMARKS
GOODLAND       SUNNY     89  55  31 SE9       30.08F
HILL CITY      CLOUDY    86  70  58 SE6       30.01F HX  90
NORTON         CLEAR     90  57  33 NE13G18   30.02F
SMITH CENTER   PTSUNNY   88  66  48 NE7       30.00F HX  90
BELOIT         MOSUNNY   88  70  55 CALM      29.97F HX  92
HAYS           MOSUNNY   91  66  43 E7        29.98F HX  94
RUSSELL        MOSUNNY   92  66  42 NE6       29.97F HX  94
CONCORDIA      MOSUNNY   88  69  53 CALM      29.98F HX  92
SALINA         MOSUNNY   93  69  45 NE5       29.97F HX  98
TOPEKA         PTSUNNY   91  68  46 N5        29.95F HX  95



USA.gov is the U.S. government's official web portal to all federal, state and local government web resources and services.